DW4362 Weather Reports


time (UTC)temp
F
wind
direction
speed
knots
gust
knots
rain 1hr
in
rain 24hr
in
rain mn
in
humidity
%
barometer
mb
20260905173207 90 96 0.0 1.7 0.00 0.01 0.01 73 1012.7
20260905170207 86 293 0.0 0.0 0.00 0.01 0.01 83 1013.1
20260905163207 89 146 0.0 0.0 0.00 0.01 0.01 73 1013.2
20260905160207 85 153 0.0 0.0 0.00 0.01 0.01 85 1013.6
20260905150207 87 96 1.7 2.6 0.00 0.01 0.01 81 1013.4
20260905143206 85 289 0.0 0.0 0.00 0.01 0.01 88 1013.3
20260905130206 77 162 0.0 1.7 0.00 0.01 0.01 95 1013.0
20260905123206 76 118 0.0 0.0 0.01 0.01 0.01 95 1012.9
20260905120206 75 118 0.0 0.0 0.01 0.01 0.01 95 1012.7
20260905110206 74 118 0.0 0.0 0.00 0.00 0.00 95 1012.3
20260905103206 75 118 0.0 0.0 0.00 0.00 0.00 95 1012.4
20260905100206 75 118 0.0 0.0 0.00 0.00 0.00 95 1012.1
20260905093205 75 118 0.0 0.0 0.00 0.00 0.00 95 1012.2
20260905090206 75 118 0.0 0.0 0.00 0.00 0.00 95 1011.9
20260905083206 75 118 0.0 0.0 0.00 0.00 0.00 94 1012.0
20260905080205 75 118 0.0 0.0 0.00 0.00 0.00 94 1012.0
20260905073205 76 118 0.0 0.0 0.00 0.00 0.00 94 1012.1
20260905070205 76 118 0.0 0.0 0.00 0.00 0.00 94 1011.8
20260905063205 76 118 0.0 0.0 0.00 0.00 0.00 94 1011.9
20260905060205 76 118 0.0 0.0 0.00 0.00 0.00 94 1012.0
20260905053205 76 118 0.0 0.0 0.00 0.00 0.00 94 1012.1
20260905050205 76 118 0.0 0.0 0.00 0.00 0.00 95 1012.5
20260905040205 77 118 0.0 0.0 0.00 0.31 0.00 95 1012.7
20260905033204 77 118 0.0 0.0 0.00 0.55 0.00 95 1013.0
20260905030204 78 118 0.0 0.0 0.00 0.55 0.00 95 1013.2
20260905020204 78 117 0.0 0.0 0.00 0.55 0.00 95 1013.2
20260905010204 79 117 0.0 0.0 0.00 0.55 0.00 95 1012.7
20260905003204 79 117 0.0 0.0 0.00 0.55 0.00 95 1012.5
20260905000204 80 117 0.0 0.0 0.00 0.55 0.00 94 1012.2
20260904233204 81 117 0.0 0.0 0.00 0.55 0.00 93 1012.4
20260904230204 81 212 0.0 2.6 0.00 0.55 0.00 92 1012.5
20260904223203 81 169 0.0 0.0 0.00 0.55 0.00 90 1012.5
20260904213203 81 281 0.0 0.0 0.00 0.55 0.00 87 1012.4
20260904210203 80 281 0.0 0.0 0.00 0.55 0.00 89 1012.1
20260904203203 80 22 0.0 0.0 0.00 0.55 0.00 90 1012.2
20260904200203 84 127 0.0 1.7 0.00 0.55 0.00 84 1012.5
20260904183202 84 231 1.7 4.3 0.00 0.55 0.00 86 1012.6
20260904180202 86 137 2.6 7.0 0.00 0.55 0.00 80 1013.0